| time (UTC) | temp F | wind direction | speed knots | gust knots | rain 1hr in | rain 24hr in | rain mn in | humidity % | barometer mb |
| 20260509211503 | 62 | 259 | 2.6 | 7.8 | 0.00 | 0.00 | 0.00 | 65 | 1003.2 |
| 20260509211003 | 62 | 256 | 3.5 | 8.7 | 0.00 | 0.00 | 0.00 | 65 | 1003.2 |
| 20260509210503 | 62 | 242 | 3.5 | 8.7 | 0.00 | 0.00 | 0.00 | 64 | 1003.2 |
| 20260509204503 | 62 | 242 | 2.6 | 7.8 | 0.00 | 0.00 | 0.00 | 66 | 1003.1 |
| 20260509204012 | 62 | 243 | 3.5 | 7.8 | 0.00 | 0.00 | 0.00 | 64 | 1003.2 |
| 20260509202025 | 64 | 219 | 3.5 | 7.8 | 0.00 | 0.00 | 0.00 | 59 | 1003.3 |
| 20260509201504 | 65 | 238 | 3.5 | 8.7 | 0.00 | 0.00 | 0.00 | 62 | 1003.3 |
| 20260509201024 | 65 | 237 | 4.3 | 9.6 | 0.00 | 0.00 | 0.00 | 58 | 1003.3 |
| 20260509200524 | 65 | 224 | 3.5 | 9.6 | 0.00 | 0.00 | 0.00 | 61 | 1003.4 |
| 20260509200003 | 65 | 223 | 3.5 | 9.6 | 0.00 | 0.00 | 0.00 | 60 | 1003.3 |
| 20260509195503 | 65 | 225 | 4.3 | 9.6 | 0.00 | 0.00 | 0.00 | 60 | 1003.3 |
| 20260509195003 | 65 | 232 | 4.3 | 8.7 | 0.00 | 0.00 | 0.00 | 61 | 1003.4 |
| 20260509194503 | 65 | 231 | 3.5 | 8.7 | 0.00 | 0.00 | 0.00 | 61 | 1003.4 |
| 20260509194003 | 65 | 226 | 3.5 | 8.7 | 0.00 | 0.00 | 0.00 | 61 | 1003.6 |
| 20260509193524 | 65 | 239 | 3.5 | 8.7 | 0.00 | 0.00 | 0.00 | 62 | 1003.9 |
| 20260509193003 | 64 | 234 | 3.5 | 9.6 | 0.00 | 0.00 | 0.00 | 62 | 1003.9 |
| 20260509192503 | 65 | 220 | 3.5 | 9.6 | 0.00 | 0.00 | 0.00 | 62 | 1004.1 |
| 20260509192003 | 64 | 230 | 3.5 | 9.6 | 0.00 | 0.00 | 0.00 | 62 | 1004.0 |
| 20260509191503 | 64 | 251 | 4.3 | 9.6 | 0.00 | 0.00 | 0.00 | 62 | 1004.0 |
| 20260509191003 | 64 | 236 | 3.5 | 10.4 | 0.00 | 0.00 | 0.00 | 61 | 1004.1 |
| 20260509190503 | 64 | 212 | 3.5 | 10.4 | 0.00 | 0.00 | 0.00 | 64 | 1004.3 |
| 20260509190003 | 64 | 231 | 4.3 | 12.2 | 0.00 | 0.00 | 0.00 | 63 | 1004.4 |
| 20260509185503 | 64 | 224 | 4.3 | 12.2 | 0.00 | 0.00 | 0.00 | 65 | 1004.7 |
| 20260509185003 | 63 | 212 | 3.5 | 8.7 | 0.00 | 0.00 | 0.00 | 65 | 1004.6 |
| 20260509184503 | 63 | 219 | 3.5 | 8.7 | 0.00 | 0.00 | 0.00 | 65 | 1004.4 |
| 20260509184003 | 63 | 212 | 3.5 | 8.7 | 0.00 | 0.00 | 0.00 | 66 | 1004.5 |
| 20260509183503 | 63 | 210 | 3.5 | 9.6 | 0.00 | 0.00 | 0.00 | 67 | 1004.5 |
| 20260509183003 | 63 | 218 | 3.5 | 9.6 | 0.00 | 0.00 | 0.00 | 67 | 1004.6 |
| 20260509182503 | 62 | 202 | 3.5 | 8.7 | 0.00 | 0.00 | 0.00 | 66 | 1004.8 |
| 20260509182003 | 63 | 191 | 3.5 | 9.6 | 0.00 | 0.00 | 0.00 | 65 | 1004.7 |
| 20260509181503 | 63 | 222 | 3.5 | 9.6 | 0.00 | 0.00 | 0.00 | 65 | 1004.8 |
| 20260509181003 | 63 | 237 | 3.5 | 7.8 | 0.00 | 0.00 | 0.00 | 65 | 1004.9 |
| 20260509180503 | 62 | 243 | 3.5 | 8.7 | 0.00 | 0.00 | 0.00 | 68 | 1004.9 |
| 20260509180003 | 62 | 244 | 4.3 | 8.7 | 0.00 | 0.00 | 0.00 | 67 | 1005.0 |
| 20260509175503 | 62 | 251 | 4.3 | 10.4 | 0.00 | 0.00 | 0.00 | 67 | 1005.1 |
| 20260509175003 | 62 | 256 | 5.2 | 10.4 | 0.00 | 0.00 | 0.00 | 66 | 1005.2 |
| 20260509174503 | 61 | 241 | 4.3 | 9.6 | 0.00 | 0.00 | 0.00 | 65 | 1005.3 |
| 20260509174003 | 62 | 249 | 5.2 | 13.0 | 0.00 | 0.00 | 0.00 | 65 | 1005.3 |
| 20260509173503 | 61 | 256 | 5.2 | 13.0 | 0.00 | 0.00 | 0.00 | 65 | 1005.3 |
| 20260509173024 | 63 | 236 | 4.3 | 10.4 | 0.00 | 0.00 | 0.00 | 63 | 1005.3 |
| 20260509172503 | 63 | 217 | 3.5 | 8.7 | 0.00 | 0.00 | 0.00 | 65 | 1005.3 |
| 20260509172003 | 62 | 226 | 2.6 | 7.8 | 0.00 | 0.00 | 0.00 | 62 | 1005.3 |
| 20260509171503 | 63 | 240 | 3.5 | 7.8 | 0.00 | 0.00 | 0.00 | 62 | 1005.3 |
| 20260509171003 | 61 | 244 | 3.5 | 8.7 | 0.00 | 0.00 | 0.00 | 65 | 1005.3 |
| 20260509170504 | 61 | 232 | 3.5 | 9.6 | 0.00 | 0.00 | 0.00 | 64 | 1005.4 |
| 20260509170003 | 62 | 231 | 3.5 | 9.6 | 0.00 | 0.00 | 0.00 | 63 | 1005.4 |
| 20260509165503 | 61 | 213 | 3.5 | 9.6 | 0.00 | 0.00 | 0.00 | 63 | 1005.4 |
| 20260509165003 | 62 | 198 | 3.5 | 8.7 | 0.00 | 0.00 | 0.00 | 62 | 1005.5 |
| 20260509164503 | 62 | 237 | 4.3 | 8.7 | 0.00 | 0.00 | 0.00 | 60 | 1005.5 |
| 20260509164003 | 62 | 234 | 4.3 | 8.7 | 0.00 | 0.00 | 0.00 | 61 | 1005.6 |
| 20260509163503 | 63 | 197 | 3.5 | 7.8 | 0.00 | 0.00 | 0.00 | 63 | 1005.5 |
| 20260509163003 | 62 | 204 | 3.5 | 7.8 | 0.00 | 0.00 | 0.00 | 61 | 1005.5 |
| 20260509162503 | 61 | 209 | 3.5 | 12.2 | 0.00 | 0.00 | 0.00 | 63 | 1005.8 |
| 20260509162024 | 61 | 183 | 3.5 | 12.2 | 0.00 | 0.00 | 0.00 | 61 | 1005.8 |
| 20260509161524 | 61 | 173 | 3.5 | 8.7 | 0.00 | 0.00 | 0.00 | 62 | 1005.7 |
| 20260509161003 | 61 | 191 | 3.5 | 8.7 | 0.00 | 0.00 | 0.00 | 64 | 1005.9 |
| 20260509160503 | 60 | 175 | 3.5 | 7.8 | 0.00 | 0.00 | 0.00 | 64 | 1005.9 |
| 20260509160003 | 60 | 166 | 3.5 | 7.8 | 0.00 | 0.00 | 0.00 | 62 | 1006.0 |
| 20260509155503 | 61 | 195 | 3.5 | 7.8 | 0.00 | 0.00 | 0.00 | 65 | 1006.0 |
| 20260509155024 | 60 | 204 | 3.5 | 7.8 | 0.00 | 0.00 | 0.00 | 63 | 1006.0 |
| 20260509154503 | 60 | 214 | 2.6 | 7.8 | 0.00 | 0.00 | 0.00 | 66 | 1006.0 |
| 20260509154003 | 60 | 193 | 3.5 | 7.8 | 0.00 | 0.00 | 0.00 | 65 | 1006.0 |
| 20260509153524 | 60 | 186 | 2.6 | 7.8 | 0.00 | 0.00 | 0.00 | 66 | 1006.0 |
| 20260509153003 | 59 | 211 | 2.6 | 7.0 | 0.00 | 0.00 | 0.00 | 66 | 1006.1 |
| 20260509152503 | 59 | 195 | 2.6 | 7.8 | 0.00 | 0.00 | 0.00 | 68 | 1006.1 |
| 20260509152003 | 59 | 192 | 2.6 | 7.8 | 0.00 | 0.00 | 0.00 | 67 | 1006.1 |
| 20260509151503 | 59 | 215 | 2.6 | 7.8 | 0.00 | 0.00 | 0.00 | 66 | 1006.0 |
| 20260509151024 | 59 | 196 | 2.6 | 7.8 | 0.00 | 0.00 | 0.00 | 69 | 1006.0 |
| 20260509150503 | 58 | 180 | 2.6 | 7.0 | 0.00 | 0.00 | 0.00 | 70 | 1006.0 |
| 20260509150024 | 58 | 186 | 1.7 | 6.1 | 0.00 | 0.00 | 0.00 | 69 | 1006.0 |
| 20260509145503 | 58 | 195 | 2.6 | 6.1 | 0.00 | 0.00 | 0.00 | 71 | 1006.0 |
| 20260509145003 | 58 | 187 | 2.6 | 6.1 | 0.00 | 0.00 | 0.00 | 72 | 1006.1 |
| 20260509144503 | 58 | 174 | 2.6 | 6.1 | 0.00 | 0.00 | 0.00 | 72 | 1006.1 |
| 20260509144003 | 57 | 188 | 2.6 | 8.7 | 0.00 | 0.00 | 0.00 | 72 | 1006.1 |
| 20260509143524 | 57 | 219 | 3.5 | 8.7 | 0.00 | 0.00 | 0.00 | 73 | 1006.2 |
| 20260509143003 | 57 | 240 | 3.5 | 8.7 | 0.00 | 0.00 | 0.00 | 73 | 1006.2 |
| 20260509142503 | 57 | 236 | 3.5 | 8.7 | 0.00 | 0.00 | 0.00 | 72 | 1006.2 |
| 20260509142003 | 58 | 215 | 2.6 | 7.8 | 0.00 | 0.00 | 0.00 | 73 | 1006.2 |
| 20260509141503 | 58 | 205 | 2.6 | 7.8 | 0.00 | 0.00 | 0.00 | 72 | 1006.4 |
| 20260509141003 | 57 | 212 | 2.6 | 7.0 | 0.00 | 0.00 | 0.00 | 73 | 1006.4 |
| 20260509140503 | 57 | 211 | 2.6 | 8.7 | 0.00 | 0.00 | 0.00 | 74 | 1006.4 |
| 20260509140003 | 57 | 215 | 2.6 | 8.7 | 0.00 | 0.00 | 0.00 | 73 | 1006.5 |
| 20260509135503 | 57 | 208 | 2.6 | 8.7 | 0.00 | 0.00 | 0.00 | 73 | 1006.5 |
| 20260509135003 | 57 | 194 | 2.6 | 7.0 | 0.00 | 0.00 | 0.00 | 74 | 1006.4 |
| 20260509134503 | 57 | 180 | 2.6 | 9.6 | 0.00 | 0.00 | 0.00 | 75 | 1006.5 |
| 20260509134024 | 57 | 174 | 3.5 | 9.6 | 0.00 | 0.00 | 0.00 | 75 | 1006.4 |
| 20260509133503 | 56 | 176 | 2.6 | 7.8 | 0.00 | 0.00 | 0.00 | 76 | 1006.3 |
| 20260509133024 | 56 | 169 | 3.5 | 7.8 | 0.00 | 0.00 | 0.00 | 76 | 1006.4 |
| 20260509132524 | 56 | 166 | 3.5 | 7.8 | 0.00 | 0.00 | 0.00 | 77 | 1006.6 |
| 20260509132003 | 56 | 166 | 3.5 | 7.8 | 0.00 | 0.00 | 0.00 | 77 | 1006.7 |
| 20260509131503 | 55 | 170 | 2.6 | 7.0 | 0.00 | 0.00 | 0.00 | 77 | 1006.8 |
| 20260509131003 | 55 | 170 | 2.6 | 7.0 | 0.00 | 0.00 | 0.00 | 78 | 1006.9 |
| 20260509130503 | 55 | 167 | 2.6 | 7.0 | 0.00 | 0.01 | 0.00 | 78 | 1006.9 |
| 20260509130003 | 54 | 164 | 2.6 | 7.8 | 0.00 | 0.01 | 0.00 | 79 | 1006.9 |
| 20260509125503 | 54 | 162 | 2.6 | 7.8 | 0.00 | 0.01 | 0.00 | 80 | 1006.9 |
| 20260509125003 | 54 | 161 | 2.6 | 6.1 | 0.00 | 0.01 | 0.00 | 80 | 1006.9 |
| 20260509124503 | 53 | 161 | 2.6 | 5.2 | 0.00 | 0.01 | 0.00 | 81 | 1006.9 |
| 20260509124003 | 53 | 165 | 2.6 | 5.2 | 0.00 | 0.01 | 0.00 | 81 | 1006.9 |
| 20260509123503 | 52 | 167 | 2.6 | 7.0 | 0.00 | 0.01 | 0.00 | 82 | 1007.0 |
| 20260509123003 | 52 | 166 | 2.6 | 7.0 | 0.00 | 0.01 | 0.00 | 82 | 1007.0 |
| 20260509122503 | 52 | 164 | 1.7 | 6.1 | 0.00 | 0.01 | 0.00 | 83 | 1007.0 |
| 20260509122003 | 51 | 159 | 1.7 | 6.1 | 0.00 | 0.01 | 0.00 | 83 | 1007.1 |
| 20260509121524 | 51 | 161 | 1.7 | 5.2 | 0.00 | 0.01 | 0.00 | 83 | 1007.2 |
| 20260509121003 | 51 | 161 | 1.7 | 5.2 | 0.00 | 0.01 | 0.00 | 84 | 1007.2 |
| 20260509120503 | 50 | 155 | 1.7 | 4.3 | 0.00 | 0.01 | 0.00 | 85 | 1007.2 |
| 20260509120003 | 50 | 156 | 0.9 | 4.3 | 0.00 | 0.01 | 0.00 | 85 | 1007.2 |
| 20260509115503 | 49 | 155 | 1.7 | 4.3 | 0.00 | 0.01 | 0.00 | 85 | 1007.2 |
| 20260509115003 | 49 | 152 | 1.7 | 5.2 | 0.00 | 0.01 | 0.00 | 86 | 1007.1 |
| 20260509114503 | 48 | 151 | 1.7 | 5.2 | 0.00 | 0.02 | 0.00 | 86 | 1007.1 |
| 20260509114003 | 48 | 154 | 1.7 | 4.3 | 0.00 | 0.02 | 0.00 | 87 | 1007.1 |
| 20260509113524 | 47 | 156 | 1.7 | 4.3 | 0.00 | 0.03 | 0.00 | 87 | 1007.1 |
| 20260509113003 | 47 | 159 | 0.9 | 4.3 | 0.00 | 0.04 | 0.00 | 88 | 1007.1 |
| 20260509112503 | 46 | 161 | 0.9 | 3.5 | 0.00 | 0.05 | 0.00 | 88 | 1007.3 |
| 20260509112024 | 46 | 162 | 0.0 | 3.5 | 0.00 | 0.06 | 0.00 | 88 | 1007.3 |
| 20260509111503 | 45 | 0 | 0.0 | 0.0 | 0.00 | 0.07 | 0.00 | 88 | 1007.3 |
| 20260509111003 | 45 | 0 | 0.0 | 0.0 | 0.00 | 0.07 | 0.00 | 87 | 1007.3 |
| 20260509110503 | 44 | 0 | 0.0 | 0.0 | 0.00 | 0.07 | 0.00 | 87 | 1007.3 |
| 20260509110003 | 44 | 0 | 0.0 | 0.0 | 0.00 | 0.07 | 0.00 | 87 | 1007.3 |
| 20260509105503 | 44 | 163 | 0.0 | 0.9 | 0.00 | 0.07 | 0.00 | 87 | 1007.3 |
| 20260509105003 | 44 | 163 | 0.0 | 1.7 | 0.00 | 0.07 | 0.00 | 87 | 1007.3 |
| 20260509104503 | 43 | 163 | 0.0 | 2.6 | 0.00 | 0.07 | 0.00 | 87 | 1007.2 |
| 20260509104003 | 43 | 163 | 0.0 | 2.6 | 0.00 | 0.08 | 0.00 | 87 | 1007.3 |
| 20260509103503 | 42 | 164 | 0.0 | 0.9 | 0.00 | 0.08 | 0.00 | 87 | 1007.2 |
| 20260509103003 | 42 | 164 | 0.0 | 0.9 | 0.00 | 0.09 | 0.00 | 87 | 1007.3 |
| 20260509102503 | 42 | 164 | 0.0 | 0.9 | 0.00 | 0.09 | 0.00 | 86 | 1007.3 |
| 20260509102003 | 42 | 0 | 0.0 | 0.0 | 0.00 | 0.09 | 0.00 | 85 | 1007.2 |
| 20260509101503 | 42 | 0 | 0.0 | 0.0 | 0.00 | 0.09 | 0.00 | 85 | 1007.2 |
| 20260509101003 | 42 | 0 | 0.0 | 0.0 | 0.00 | 0.09 | 0.00 | 85 | 1007.3 |
| 20260509100524 | 42 | 0 | 0.0 | 0.0 | 0.00 | 0.09 | 0.00 | 84 | 1007.2 |
| 20260509100004 | 42 | 0 | 0.0 | 0.0 | 0.00 | 0.10 | 0.00 | 84 | 1007.2 |
| 20260509095524 | 42 | 0 | 0.0 | 0.0 | 0.00 | 0.10 | 0.00 | 84 | 1007.1 |
| 20260509095024 | 43 | 0 | 0.0 | 0.0 | 0.00 | 0.10 | 0.00 | 84 | 1007.1 |
| 20260509094503 | 43 | 164 | 0.0 | 0.9 | 0.00 | 0.10 | 0.00 | 84 | 1007.0 |
| 20260509094003 | 43 | 164 | 0.0 | 1.7 | 0.00 | 0.10 | 0.00 | 84 | 1007.1 |
| 20260509093503 | 43 | 164 | 0.0 | 1.7 | 0.00 | 0.10 | 0.00 | 84 | 1007.1 |
| 20260509093003 | 43 | 164 | 0.0 | 1.7 | 0.00 | 0.10 | 0.00 | 84 | 1007.2 |
| 20260509092503 | 43 | 164 | 0.0 | 1.7 | 0.00 | 0.10 | 0.00 | 84 | 1007.2 |
| 20260509092003 | 43 | 164 | 0.0 | 1.7 | 0.00 | 0.10 | 0.00 | 84 | 1007.2 |
| 20260509091503 | 43 | 164 | 0.0 | 1.7 | 0.00 | 0.10 | 0.00 | 83 | 1007.3 |
| 20260509091003 | 43 | 164 | 0.0 | 1.7 | 0.00 | 0.10 | 0.00 | 83 | 1007.2 |
| 20260509090524 | 42 | 164 | 0.0 | 1.7 | 0.00 | 0.10 | 0.00 | 82 | 1007.2 |
| 20260509090003 | 42 | 164 | 0.0 | 0.9 | 0.00 | 0.10 | 0.00 | 82 | 1007.2 |
| 20260509085524 | 42 | 164 | 0.0 | 0.9 | 0.00 | 0.10 | 0.00 | 81 | 1007.2 |
| 20260509085003 | 43 | 164 | 0.0 | 0.9 | 0.00 | 0.10 | 0.00 | 81 | 1007.3 |
| 20260509084503 | 43 | 164 | 0.0 | 0.9 | 0.00 | 0.10 | 0.00 | 81 | 1007.3 |
| 20260509084003 | 43 | 164 | 0.0 | 0.9 | 0.00 | 0.10 | 0.00 | 81 | 1007.3 |
| 20260509083503 | 43 | 164 | 0.0 | 1.7 | 0.00 | 0.10 | 0.00 | 80 | 1007.4 |
| 20260509083003 | 43 | 164 | 0.0 | 1.7 | 0.00 | 0.10 | 0.00 | 80 | 1007.3 |
| 20260509082503 | 42 | 165 | 0.0 | 1.7 | 0.00 | 0.10 | 0.00 | 80 | 1007.4 |
| 20260509082003 | 42 | 165 | 0.9 | 3.5 | 0.00 | 0.10 | 0.00 | 80 | 1007.5 |
| 20260509081503 | 42 | 165 | 0.9 | 4.3 | 0.00 | 0.10 | 0.00 | 80 | 1007.5 |
| 20260509081024 | 42 | 165 | 0.9 | 4.3 | 0.00 | 0.10 | 0.00 | 79 | 1007.5 |
| 20260509080503 | 42 | 166 | 0.9 | 3.5 | 0.00 | 0.10 | 0.00 | 79 | 1007.4 |
| 20260509080024 | 42 | 169 | 0.9 | 3.5 | 0.00 | 0.10 | 0.00 | 79 | 1007.6 |
| 20260509075524 | 41 | 173 | 0.9 | 2.6 | 0.00 | 0.10 | 0.00 | 79 | 1007.6 |
| 20260509075003 | 41 | 173 | 0.9 | 2.6 | 0.00 | 0.10 | 0.00 | 78 | 1007.7 |
| 20260509074503 | 41 | 174 | 0.9 | 2.6 | 0.00 | 0.10 | 0.00 | 78 | 1007.8 |
| 20260509074003 | 41 | 174 | 0.9 | 2.6 | 0.00 | 0.10 | 0.00 | 78 | 1007.8 |
| 20260509073503 | 40 | 174 | 0.0 | 1.7 | 0.00 | 0.10 | 0.00 | 78 | 1007.9 |
| 20260509073003 | 40 | 174 | 0.0 | 0.9 | 0.00 | 0.10 | 0.00 | 78 | 1007.9 |
| 20260509072524 | 40 | 174 | 0.0 | 1.7 | 0.00 | 0.10 | 0.00 | 78 | 1007.9 |
| 20260509072003 | 40 | 174 | 0.0 | 1.7 | 0.00 | 0.10 | 0.00 | 77 | 1007.9 |
| 20260509071503 | 40 | 174 | 0.0 | 0.9 | 0.00 | 0.10 | 0.00 | 77 | 1008.0 |
| 20260509071003 | 40 | 0 | 0.0 | 0.0 | 0.00 | 0.10 | 0.00 | 77 | 1008.1 |
| 20260509070503 | 40 | 0 | 0.0 | 0.0 | 0.00 | 0.10 | 0.00 | 77 | 1008.1 |
| 20260509070003 | 40 | 174 | 0.0 | 0.9 | 0.00 | 0.10 | 0.00 | 77 | 1008.1 |
| 20260509065503 | 40 | 174 | 0.0 | 1.7 | 0.00 | 0.10 | 0.00 | 77 | 1008.1 |
| 20260509065003 | 40 | 174 | 0.0 | 1.7 | 0.00 | 0.10 | 0.00 | 76 | 1008.1 |
| 20260509064503 | 40 | 0 | 0.0 | 0.0 | 0.00 | 0.10 | 0.00 | 76 | 1008.1 |
| 20260509064003 | 40 | 0 | 0.0 | 0.0 | 0.00 | 0.10 | 0.00 | 76 | 1008.3 |
| 20260509063503 | 40 | 174 | 0.0 | 1.7 | 0.00 | 0.10 | 0.00 | 75 | 1008.4 |
| 20260509063024 | 40 | 174 | 0.0 | 1.7 | 0.00 | 0.10 | 0.00 | 75 | 1008.3 |
| 20260509062503 | 40 | 174 | 0.0 | 1.7 | 0.00 | 0.10 | 0.00 | 74 | 1008.5 |
| 20260509062024 | 40 | 174 | 0.0 | 1.7 | 0.00 | 0.10 | 0.00 | 74 | 1008.6 |
| 20260509061504 | 40 | 0 | 0.0 | 0.0 | 0.00 | 0.10 | 0.00 | 74 | 1008.6 |
| 20260509061003 | 40 | 175 | 0.0 | 0.9 | 0.00 | 0.10 | 0.00 | 74 | 1008.7 |
| 20260509060503 | 40 | 175 | 0.0 | 0.9 | 0.00 | 0.10 | 0.00 | 74 | 1008.8 |
| 20260509060003 | 40 | 0 | 0.0 | 0.0 | 0.00 | 0.10 | 0.00 | 74 | 1008.9 |
| 20260509055503 | 40 | 175 | 0.0 | 1.7 | 0.00 | 0.10 | 0.00 | 74 | 1008.9 |
| 20260509055003 | 40 | 175 | 0.9 | 1.7 | 0.00 | 0.10 | 0.00 | 74 | 1009.0 |
| 20260509054524 | 40 | 175 | 0.9 | 1.7 | 0.00 | 0.10 | 0.00 | 75 | 1009.1 |
| 20260509054003 | 40 | 175 | 0.0 | 1.7 | 0.00 | 0.10 | 0.00 | 75 | 1009.1 |
| 20260509053503 | 40 | 175 | 0.0 | 1.7 | 0.00 | 0.10 | 0.00 | 75 | 1009.1 |
| 20260509053024 | 40 | 175 | 0.0 | 1.7 | 0.00 | 0.10 | 0.00 | 75 | 1009.2 |
| 20260509052524 | 40 | 175 | 0.0 | 1.7 | 0.00 | 0.10 | 0.00 | 75 | 1009.2 |
| 20260509052003 | 40 | 175 | 0.0 | 1.7 | 0.00 | 0.10 | 0.00 | 75 | 1009.3 |
| 20260509051503 | 40 | 175 | 0.0 | 1.7 | 0.00 | 0.10 | 0.00 | 75 | 1009.3 |
| 20260509051024 | 40 | 175 | 0.0 | 1.7 | 0.00 | 0.10 | 0.00 | 75 | 1009.3 |
| 20260509050524 | 40 | 175 | 0.0 | 0.9 | 0.00 | 0.10 | 0.00 | 75 | 1009.4 |
| 20260509050003 | 40 | 175 | 0.0 | 1.7 | 0.00 | 0.10 | 0.00 | 75 | 1009.4 |
| 20260509045503 | 40 | 175 | 0.0 | 1.7 | 0.00 | 0.10 | 0.00 | 75 | 1009.5 |
| 20260509045003 | 40 | 175 | 0.0 | 0.9 | 0.00 | 0.10 | 0.00 | 75 | 1009.6 |
| 20260509044503 | 40 | 0 | 0.0 | 0.0 | 0.00 | 0.10 | 0.00 | 74 | 1009.6 |
| 20260509044003 | 40 | 0 | 0.0 | 0.0 | 0.00 | 0.10 | 0.00 | 75 | 1009.6 |
| 20260509043503 | 40 | 191 | 0.9 | 2.6 | 0.00 | 0.10 | 0.00 | 75 | 1009.6 |
| 20260509043003 | 40 | 193 | 0.9 | 2.6 | 0.00 | 0.10 | 0.00 | 76 | 1009.6 |
| 20260509042503 | 40 | 200 | 0.9 | 1.7 | 0.00 | 0.10 | 0.00 | 78 | 1009.7 |
| 20260509042003 | 40 | 200 | 0.0 | 1.7 | 0.00 | 0.10 | 0.00 | 79 | 1009.7 |
| 20260509041524 | 39 | 200 | 0.0 | 1.7 | 0.00 | 0.10 | 0.00 | 80 | 1009.9 |
| 20260509041003 | 39 | 0 | 0.0 | 0.0 | 0.00 | 0.10 | 0.00 | 81 | 1009.9 |
| 20260509040503 | 39 | 201 | 0.0 | 0.9 | 0.00 | 0.10 | 0.00 | 81 | 1009.9 |
| 20260509040003 | 39 | 201 | 0.0 | 0.9 | 0.00 | 0.10 | 0.00 | 81 | 1009.9 |
| 20260509035503 | 39 | 0 | 0.0 | 0.0 | 0.00 | 0.10 | 0.10 | 80 | 1009.9 |
| 20260509035024 | 39 | 0 | 0.0 | 0.0 | 0.00 | 0.10 | 0.10 | 80 | 1009.9 |
| 20260509034503 | 39 | 201 | 0.0 | 0.9 | 0.00 | 0.10 | 0.10 | 79 | 1010.0 |
| 20260509034003 | 40 | 201 | 0.0 | 0.9 | 0.00 | 0.10 | 0.10 | 79 | 1010.1 |
| 20260509033503 | 40 | 0 | 0.0 | 0.0 | 0.00 | 0.10 | 0.10 | 78 | 1010.1 |
| 20260509033003 | 40 | 0 | 0.0 | 0.0 | 0.00 | 0.10 | 0.10 | 78 | 1010.1 |
| 20260509032524 | 40 | 201 | 0.0 | 0.9 | 0.00 | 0.10 | 0.10 | 78 | 1010.2 |
| 20260509032003 | 40 | 201 | 0.0 | 0.9 | 0.00 | 0.10 | 0.10 | 78 | 1010.2 |
| 20260509031503 | 40 | 201 | 0.0 | 1.7 | 0.00 | 0.10 | 0.10 | 77 | 1010.3 |
| 20260509031003 | 40 | 201 | 0.0 | 1.7 | 0.00 | 0.10 | 0.10 | 78 | 1010.3 |
| 20260509030524 | 41 | 0 | 0.0 | 0.0 | 0.00 | 0.10 | 0.10 | 77 | 1010.3 |
| 20260509030003 | 41 | 0 | 0.0 | 0.0 | 0.00 | 0.10 | 0.10 | 76 | 1010.2 |
| 20260509025524 | 41 | 0 | 0.0 | 0.0 | 0.00 | 0.10 | 0.10 | 75 | 1010.3 |
| 20260509025003 | 41 | 0 | 0.0 | 0.0 | 0.00 | 0.10 | 0.10 | 75 | 1010.3 |
| 20260509024524 | 41 | 0 | 0.0 | 0.0 | 0.00 | 0.10 | 0.10 | 75 | 1010.3 |
| 20260509024003 | 42 | 0 | 0.0 | 0.0 | 0.00 | 0.10 | 0.10 | 74 | 1010.3 |
| 20260509023503 | 42 | 0 | 0.0 | 0.0 | 0.00 | 0.10 | 0.10 | 74 | 1010.3 |
| 20260509023003 | 42 | 0 | 0.0 | 0.0 | 0.00 | 0.10 | 0.10 | 73 | 1010.3 |
| 20260509022503 | 42 | 0 | 0.0 | 0.0 | 0.00 | 0.10 | 0.10 | 72 | 1010.1 |
| 20260509022003 | 43 | 0 | 0.0 | 0.0 | 0.00 | 0.10 | 0.10 | 71 | 1010.1 |
| 20260509021503 | 43 | 0 | 0.0 | 0.0 | 0.00 | 0.11 | 0.10 | 70 | 1010.2 |
| 20260509021003 | 43 | 0 | 0.0 | 0.0 | 0.00 | 0.11 | 0.10 | 69 | 1010.2 |
| 20260509020503 | 44 | 0 | 0.0 | 0.0 | 0.00 | 0.11 | 0.10 | 69 | 1010.1 |
| 20260509020003 | 44 | 0 | 0.0 | 0.0 | 0.00 | 0.11 | 0.10 | 67 | 1010.1 |
| 20260509015503 | 44 | 0 | 0.0 | 0.0 | 0.00 | 0.11 | 0.10 | 66 | 1010.1 |
| 20260509015003 | 45 | 0 | 0.0 | 0.0 | 0.00 | 0.11 | 0.10 | 65 | 1010.0 |
| 20260509014524 | 45 | 0 | 0.0 | 0.0 | 0.00 | 0.11 | 0.10 | 64 | 1010.0 |
| 20260509014003 | 46 | 0 | 0.0 | 0.0 | 0.00 | 0.11 | 0.10 | 62 | 1010.1 |
| 20260509013503 | 46 | 0 | 0.0 | 0.0 | 0.00 | 0.11 | 0.10 | 62 | 1010.0 |
| 20260509013003 | 46 | 0 | 0.0 | 0.0 | 0.00 | 0.11 | 0.10 | 60 | 1010.0 |
| 20260509012503 | 47 | 0 | 0.0 | 0.0 | 0.00 | 0.11 | 0.10 | 58 | 1009.9 |
| 20260509012024 | 47 | 0 | 0.0 | 0.0 | 0.00 | 0.11 | 0.10 | 56 | 1009.8 |
| 20260509011503 | 48 | 0 | 0.0 | 0.0 | 0.00 | 0.11 | 0.10 | 55 | 1009.7 |
| 20260509011024 | 48 | 0 | 0.0 | 0.0 | 0.00 | 0.11 | 0.10 | 53 | 1009.8 |
| 20260509010503 | 49 | 0 | 0.0 | 0.0 | 0.00 | 0.11 | 0.10 | 52 | 1009.8 |
| 20260509010003 | 50 | 202 | 0.0 | 0.9 | 0.00 | 0.11 | 0.10 | 51 | 1009.7 |
| 20260509005503 | 50 | 202 | 0.0 | 0.9 | 0.00 | 0.11 | 0.10 | 49 | 1009.7 |
| 20260509005003 | 50 | 0 | 0.0 | 0.0 | 0.00 | 0.11 | 0.10 | 49 | 1009.7 |
| 20260509004503 | 51 | 202 | 0.0 | 0.9 | 0.00 | 0.11 | 0.10 | 46 | 1009.7 |
| 20260509004003 | 51 | 202 | 0.0 | 1.7 | 0.00 | 0.11 | 0.10 | 45 | 1009.7 |
| 20260509003503 | 51 | 202 | 0.0 | 2.6 | 0.00 | 0.11 | 0.10 | 44 | 1009.7 |
| 20260509003024 | 52 | 198 | 0.9 | 3.5 | 0.00 | 0.11 | 0.10 | 44 | 1009.7 |
| 20260509002524 | 52 | 197 | 0.0 | 3.5 | 0.00 | 0.11 | 0.10 | 43 | 1009.6 |
| 20260509002003 | 52 | 197 | 0.0 | 1.7 | 0.00 | 0.11 | 0.10 | 42 | 1009.6 |
| 20260509001503 | 52 | 197 | 0.9 | 2.6 | 0.00 | 0.11 | 0.10 | 42 | 1009.5 |
| 20260509001003 | 52 | 197 | 0.9 | 2.6 | 0.00 | 0.11 | 0.10 | 41 | 1009.5 |
| 20260509000503 | 53 | 197 | 0.0 | 2.6 | 0.00 | 0.11 | 0.10 | 42 | 1009.5 |
| 20260509000003 | 53 | 197 | 0.0 | 2.6 | 0.00 | 0.11 | 0.10 | 39 | 1009.3 |
| 20260508235503 | 53 | 197 | 0.9 | 2.6 | 0.00 | 0.11 | 0.10 | 40 | 1009.4 |
| 20260508235024 | 53 | 197 | 0.9 | 2.6 | 0.00 | 0.11 | 0.10 | 39 | 1009.4 |
| 20260508234503 | 53 | 212 | 0.9 | 5.2 | 0.00 | 0.11 | 0.10 | 38 | 1009.4 |
| 20260508234003 | 53 | 232 | 1.7 | 5.2 | 0.00 | 0.11 | 0.10 | 37 | 1009.4 |
| 20260508233524 | 53 | 225 | 2.6 | 6.1 | 0.00 | 0.11 | 0.10 | 36 | 1009.5 |
| 20260508233024 | 54 | 213 | 2.6 | 6.1 | 0.00 | 0.11 | 0.10 | 35 | 1009.4 |
| 20260508232503 | 54 | 210 | 1.7 | 4.3 | 0.00 | 0.11 | 0.10 | 37 | 1009.4 |
| 20260508232003 | 54 | 212 | 2.6 | 6.1 | 0.00 | 0.11 | 0.10 | 35 | 1009.4 |
| 20260508231503 | 54 | 215 | 2.6 | 6.1 | 0.00 | 0.11 | 0.10 | 34 | 1009.4 |
| 20260508231024 | 55 | 221 | 2.6 | 7.0 | 0.00 | 0.11 | 0.10 | 32 | 1009.5 |
| 20260508230503 | 56 | 223 | 2.6 | 7.0 | 0.00 | 0.11 | 0.10 | 32 | 1009.4 |
| 20260508230003 | 56 | 226 | 2.6 | 7.8 | 0.00 | 0.11 | 0.10 | 32 | 1009.4 |
| 20260508225503 | 56 | 244 | 2.6 | 7.8 | 0.00 | 0.11 | 0.10 | 31 | 1009.3 |
| 20260508225003 | 56 | 249 | 2.6 | 7.8 | 0.00 | 0.11 | 0.10 | 29 | 1009.3 |
| 20260508224503 | 56 | 241 | 2.6 | 7.8 | 0.00 | 0.11 | 0.10 | 31 | 1009.3 |
| 20260508224003 | 56 | 226 | 2.6 | 8.7 | 0.00 | 0.11 | 0.10 | 30 | 1009.5 |
| 20260508223503 | 56 | 222 | 3.5 | 9.6 | 0.00 | 0.11 | 0.10 | 30 | 1009.4 |
| 20260508223003 | 56 | 225 | 4.3 | 9.6 | 0.00 | 0.11 | 0.10 | 29 | 1009.5 |
| 20260508222503 | 56 | 235 | 4.3 | 9.6 | 0.00 | 0.11 | 0.10 | 29 | 1009.6 |
| 20260508222003 | 56 | 247 | 3.5 | 9.6 | 0.00 | 0.11 | 0.10 | 29 | 1009.5 |
| 20260508221503 | 56 | 222 | 2.6 | 7.0 | 0.00 | 0.11 | 0.10 | 32 | 1009.5 |
| 20260508221003 | 56 | 231 | 3.5 | 9.6 | 0.00 | 0.11 | 0.10 | 33 | 1009.5 |
| 20260508220503 | 56 | 234 | 3.5 | 9.6 | 0.00 | 0.11 | 0.10 | 34 | 1009.5 |
| 20260508220024 | 56 | 219 | 3.5 | 7.8 | 0.00 | 0.11 | 0.10 | 34 | 1009.6 |
| 20260508215524 | 56 | 214 | 3.5 | 8.7 | 0.00 | 0.11 | 0.10 | 34 | 1009.5 |
| 20260508215003 | 57 | 210 | 2.6 | 8.7 | 0.00 | 0.11 | 0.10 | 32 | 1009.5 |
| 20260508214503 | 57 | 222 | 2.6 | 7.8 | 0.00 | 0.11 | 0.10 | 35 | 1009.6 |
| 20260508214003 | 57 | 232 | 3.5 | 9.6 | 0.00 | 0.11 | 0.10 | 34 | 1009.5 |
| 20260508213503 | 57 | 230 | 3.5 | 11.3 | 0.00 | 0.11 | 0.10 | 33 | 1009.5 |
| 20260508213003 | 57 | 233 | 3.5 | 11.3 | 0.00 | 0.11 | 0.10 | 32 | 1009.5 |
| 20260508212503 | 57 | 251 | 4.3 | 9.6 | 0.00 | 0.11 | 0.10 | 32 | 1009.5 |
| 20260508212003 | 57 | 250 | 3.5 | 9.6 | 0.00 | 0.11 | 0.10 | 31 | 1009.6 |